Regional Weather Roundup
Issued by NWS Cleveland, OH

Home | Current Version | Previous Version | Graphics & Text | Print | Product List | Glossary On
Versions: 1 2 3 4 5 6 7 8 9 10 11 12 13 14 15 16 17 18 19 20 21 22 23 24 25 26 27 28 29 30 31 32 33 34 35 36 37 38 39 40 41 42 43 44 45 46 47 48 49 50
000
ASUS41 KCLE 281002
RWRCLE
OHIO REGIONAL WEATHER ROUNDUP
NATIONAL WEATHER SERVICE CLEVELAND, OH
500 AM EST SAT FEB 28 2015

NOTE: "FAIR" INDICATES FEW OR NO CLOUDS BELOW 12,000 FEET WITH NO
SIGNIFICANT WEATHER AND/OR OBSTRUCTIONS TO VISIBILITY.

OHZ001>008-015>018-024>027-034-035-043-044-281100-
   NORTHWEST OHIO

CITY           SKY/WX    TMP DP  RH WIND       PRES   REMARKS
DEFIANCE       PTCLDY    -6 -10  83 CALM      30.71R
FINDLAY        PTCLDY    -3  -9  75 CALM      30.69R
TOLEDO EXPRESS PTCLDY    -8 -12  83 CALM      30.70S
TOLEDO EXEC    PTCLDY    -1  -8  72 S3        30.73R
LIMA           PTCLDY     2  -6  69 S6        30.67S WCI  -9
$$

OHZ009>014-019>023-028>033-038-089-281100-
   NORTHEAST OHIO

CITY           SKY/WX    TMP DP  RH WIND       PRES   REMARKS
CLE-HOPKINS    PTCLDY    -5 -11  75 S3        30.74R
CLE-LAKEFRONT  PTCLDY     4  -4  69 SE7       30.73R WCI  -8
CUY CO. ARPT   NOT AVBL
LORAIN-ELYRIA  PTCLDY    -7 -11  83 S3        30.72R
ASHTABULA      PTCLDY   -15 -19  82 S3        30.71R
AKRON-CANTON   MOCLDY     1  -8  66 S3        30.68R
WOOSTER        MOCLDY   -14 -18  82 CALM      30.70R
MANSFIELD      MOCLDY    -2  -7  79 CALM      30.67R
YOUNGSTOWN     PTCLDY    -3  -7  82 CALM      30.68R
$$

OHZ042-051>053-060>062-070>072-077>081-281100-
  SOUTHWEST OHIO

CITY           SKY/WX    TMP DP  RH WIND       PRES   REMARKS
CINC-COVINGTON CLOUDY    12   0  58 E3        30.66R
CINC-LUNKEN    CLEAR      7   1  76 CALM      30.72R
HAMILTON       CLEAR      4  -1  80 CALM      30.71R
DAYTON         PTCLDY     6  -2  69 E5        30.67S WCI  -3
WRIGHT-PAT AFB PTCLDY     4  -2  76 CALM      30.69R
DAYTON GENERAL CLEAR      8  -3  61 E8        30.66R WCI  -4
WILMINGTON     PTCLDY     5  -5  63 E6        30.65S WCI  -6
$$

OHZ036-037-039>041-045>050-054>059-063>069-073>076-082>088-281100-
  CENTRAL AND SOUTHEAST OHIO

CITY           SKY/WX    TMP DP  RH WIND       PRES   REMARKS
COLUMBUS       MOCLDY     0  -6  76 NE3       30.70R
OSU AIRPORT    PTCLDY     2  -4  76 NE3       30.69S
BOLTON FIELD   MOCLDY   N/A N/A N/A CALM      30.68F
RICKENBACK AFB NOT AVBL
NEWARK         FAIR      -6 -11  79 CALM      30.70S
MARION         PTCLDY   -10 -16  74 CALM      30.69R
LANCASTER      PTCLDY    -2  -6  83 CALM      30.70S
ZANESVILLE     FAIR       2  -2  83 CALM      30.71R
NEW PHILLY     MOCLDY    -2  -9  72 CALM      30.73R
$$



USA.gov is the U.S. government's official web portal to all federal, state and local government web resources and services.